Location: Newark
(41.8083°N, 72.2500°W)
Time: 12:13:37
(UTC+00:00)

Explorer 11/Cluster Stage 4 - Pass Details

Date: 14 December 2021
Orbit: 467 x 1255 km, 28.8° (Epoch: 24 January)

Event Time Altitude Azimuth Distance (km) Brightness Sun altitude
Rises 04:46:46 0° 240° (WSW) 2,651 - -71.4°
Reaches altitude 10° 04:49:39 10° 216° (SW) 1,869 - -71.4°
Maximum altitude 04:52:10 15° 180° (S) 1,659 - -71.3°
Drops below altitude 10° 04:54:57 10° 145° (SE) 2,108 - -71.3°
Sets 04:58:33 0° 124° (ESE) 3,211 - -71.2°
